Probability
0 0 0 0 0 0 0 0 0 0 0 0 0 0 0 0 0 0 0 0 0 0 3 58 68 32 16 3 3 3 6 0 0 0 0 0 0 0 0 0 0 0 0 0 0 0 0 0 0
0 0 0 0 0 0 0 0 0 0 0 0 0 0 0 0 0 0 0 0 0 0 0 0 65 16 3 0 0 3 0 0 0 0 0 0 0 0 0 0 0 0 0 0 0 0 0 0 0
0 0 0 0 0 0 0 0 0 0 0 0 0 0 0 0 0 0 3 0 0 0 0 6 48 10 0 0 0 3 0 0 0 0 0 0 0 0 0 0 0 0 0 0 0 0 0 0 0
0 0 0 0 0 0 0 0 0 0 0 0 0 0 0 0 0 0 13 6 0 0 0 13 42 3 0 0 0 0 0 0 0 0 0 0 0 0 0 0 0 0 0 0 0 0 0 0 0
0 0 0 0 0 0 0 0 0 0 0 0 0 0 0 0 0 6 26 13 0 0 0 10 42 6 0 0 0 0 0 0 0 0 0 0 0 0 0 0 0 0 0 0 0 0 0 0 0
0 0 0 0 0 0 0 0 0 0 0 0 0 0 0 0 6 23 32 16 3 0 0 10 52 13 3 0 0 3 0 0 0 0 0 0 0 0 0 0 0 0 0 0 0 0 0 0 0
0 0 0 0 0 0 0 0 0 0 0 0 0 0 0 0 0 3 13 19 3 3 0 10 13 6 3 0 0 6 10 3 0 0 0 0 0 0 0 0 0 0 0 0 0 0 0 0 0
0 0 0 0 0 0 0 0 0 0 0 0 0 0 0 0 0 3 16 23 16 6 0 3 3 0 0 0 0 3 0 0 0 0 0 0 0 0 0 0 0 0 0 0 0 0 0 0 0
0 0 0 0 0 0 0 0 0 0 0 0 0 0 0 0 0 3 19 55 32 16 6 6 3 0 0 0 0 0 0 0 0 0 0 0 0 0 0 0 0 0 0 0 0 0 0 0 0
0 0 0 0 0 0 0 0 0 0 0 0 0 0 0 0 0 3 29 68 65 42 16 6 3 0 0 0 0 0 0 0 0 0 0 0 0 0 0 0 0 0 0 0 0 0 0 0 0
0 0 0 0 0 0 0 0 0 0 0 0 0 0 0 0 0 0 6 58 65 48 32 10 3 0 0 0 0 0 0 0 0 0 0 0 0 0 0 0 0 0 0 0 0 0 0 0 0
0 0 0 0 0 0 0 0 0 0 0 0 0 0 0 0 0 0 3 6 23 39 35 26 6 3 0 0 0 0 0 0 0 0 0 0 0 0 0 0 0 0 0 0 0 0 0 0 0
0 0 0 0 0 0 0 0 0 0 0 0 0 0 0 0 0 0 0 0 3 19 42 42 23 10 3 0 0 0 0 0 0 0 0 0 0 0 0 0 0 0 0 0 0 0 0 0 0
0 0 0 0 0 0 0 0 0 0 0 0 0 0 0 0 0 0 0 0 0 0 16 45 48 42 6 3 3 0 0 0 0 0 0 0 0 0 0 0 0 0 0 0 0 0 0 0 0
0 0 0 0 0 0 0 0 0 0 0 0 0 0 0 0 0 0 0 0 0 0 0 19 61 55 42 13 3 3 0 0 0 0 0 0 0 0 0 0 0 0 0 0 0 0 0 0 0
0 0 0 0 0 0 0 0 0 0 0 0 0 0 0 0 0 0 0 0 0 0 0 0 42 58 61 42 13 10 6 0 0 0 0 0 0 0 0 0 0 0 0 0 0 0 0 0 0
0 0 0 0 0 0 0 0 0 0 0 0 0 0 0 0 0 0 0 0 0 0 0 0 13 45 68 48 29 13 10 0 0 0 0 0 0 0 0 0 0 0 0 0 0 0 0 0 0
0 0 0 0 0 0 0 0 0 0 0 0 0 0 0 0 0 0 0 0 0 0 0 0 6 26 71 45 26 23 6 0 0 0 0 0 0 0 0 0 0 0 0 0 0 0 0 0 0
0 0 0 0 0 0 0 0 0 0 0 0 0 0 0 0 0 0 0 0 0 0 0 0 0 16 45 61 55 35 26 13 0 0 0 0 0 0 0 0 0 0 0 0 0 0 0 0 0
0 0 0 0 0 0 0 0 0 0 0 0 0 0 0 0 0 0 0 0 0 0 0 0 0 3 35 68 81 68 58 23 6 3 0 0 0 0 0 0 0 0 0 0 0 0 0 0 0
0 0 0 0 0 0 0 0 0 0 0 0 0 0 0 0 0 0 0 0 0 0 0 0 0 0 13 32 42 10 6 0 0 0 0 0 0 0 0 0 0 0 0 0 0 0 0 0 0
0 0 0 0 0 0 0 0 0 0 0 0 0 0 0 0 0 0 0 0 0 0 0 0 0 0 3 13 19 6 3 0 0 0 0 0 0 0 0 0 0 0 0 0 0 0 0 0 0
0 0 0 0 0 0 0 0 0 0 0 0 0 0 0 0 0 0 0 0 0 0 0 0 0 0 0 10 6 10 3 3 0 0 0 0 0 0 0 0 0 0 0 0 0 0 0 0 0
0 0 0 0 0 0 0 0 0 0 0 0 0 0 0 0 0 0 0 0 0 0 0 0 0 0 0 6 6 3 3 3 0 0 0 0 0 0 0 0 0 0 0 0 0 0 0 0 0
0 0 0 0 0 0 0 0 0 0 0 0 0 0 0 0 0 0 0 0 0 0 0 0 0 0 0 0 6 0 0 3 0 0 0 0 0 0 0 0 0 0 0 0 0 0 0 0 0
0 0 0 0 0 0 0 0 0 0 0 0 0 0 0 0 0 0 0 0 0 0 0 0 0 0 0 0 0 0 0 0 0 0 0 0 0 0 0 0 0 0 0 0 0 0 0 0 0
0 0 0 0 0 0 0 0 0 0 0 0 0 0 0 0 0 0 0 0 0 0 0 0 0 0 0 0 0 0 0 0 0 0 0 0 0 0 0 0 0 0 0 0 0 0 0 0 0
0 0 0 0 0 0 0 0 0 0 0 0 0 0 0 0 0 0 0 0 0 0 0 0 0 0 0 0 0 0 0 0 0 0 0 0 0 0 0 0 0 0 0 0 0 0 0 0 0
0 0 0 0 0 0 0 0 0 0 0 0 0 0 0 0 0 0 0 0 0 0 0 0 0 0 0 0 0 0 0 0 0 0 0 0 0 0 0 0 0 0 0 0 0 0 0 0 0
0 0 0 0 0 0 0 0 0 0 0 0 0 0 0 0 0 0 0 0 0 0 0 0 0 0 0 0 0 0 0 0 0 0 0 0 0 0 0 0 0 0 0 0 0 0 0 0 0
Height
5821 5824 5828 5832 5836 5839 5843 5845 5845 5846 5849 5852 5854 5855 5855 5856 5858 5863 5863 5861 5862 5864 5864 5865 5865 5866 5866 5867 5867 5867 5868 5868 5868 5868 5869 5869 5869 5869 5869 5869 5869 5869 5869 5868 5868 5868 5867 5867 5867
5816 5819 5823 5826 5830 5835 5839 5839 5839 5841 5846 5849 5850 5850 5850 5851 5855 5858 5858 5858 5859 5861 5862 5862 5863 5863 5863 5863 5864 5864 5865 5865 5865 5865 5865 5865 5866 5866 5866 5866 5866 5866 5865 5865 5865 5864 5864 5864 5863
5810 5813 5817 5820 5825 5831 5834 5832 5834 5837 5842 5845 5846 5845 5845 5848 5852 5854 5854 5855 5856 5857 5858 5859 5860 5860 5860 5860 5861 5861 5862 5862 5862 5862 5862 5862 5862 5862 5862 5862 5862 5862 5862 5861 5861 5861 5860 5860 5860
5804 5808 5811 5816 5822 5827 5827 5826 5828 5832 5837 5840 5842 5841 5841 5845 5848 5850 5850 5851 5853 5854 5855 5856 5856 5857 5857 5857 5858 5858 5859 5859 5859 5859 5859 5859 5859 5859 5858 5858 5858 5858 5858 5857 5857 5857 5857 5857 5857
5798 5801 5805 5811 5817 5821 5821 5820 5823 5827 5831 5835 5837 5836 5836 5840 5843 5845 5846 5847 5848 5850 5851 5852 5852 5853 5854 5854 5855 5855 5855 5855 5855 5855 5855 5855 5855 5855 5855 5855 5854 5854 5854 5854 5853 5853 5853 5853 5853
5791 5796 5800 5807 5813 5815 5816 5815 5817 5821 5825 5829 5831 5831 5832 5835 5839 5841 5842 5843 5843 5845 5846 5847 5848 5849 5850 5851 5851 5852 5852 5852 5852 5852 5851 5851 5851 5851 5851 5850 5850 5850 5850 5850 5849 5849 5849 5849 5849
5786 5790 5795 5802 5806 5809 5812 5810 5812 5815 5819 5823 5825 5825 5828 5831 5834 5837 5838 5839 5839 5840 5842 5843 5844 5845 5846 5847 5847 5848 5848 5848 5848 5848 5847 5847 5847 5846 5846 5846 5846 5846 5846 5845 5845 5845 5844 5844 5844
5778 5783 5788 5795 5801 5806 5807 5806 5807 5810 5814 5818 5819 5821 5824 5827 5828 5831 5833 5834 5835 5836 5837 5838 5839 5841 5842 5842 5843 5843 5843 5844 5844 5844 5843 5843 5843 5843 5842 5842 5842 5841 5841 5841 5841 5840 5840 5840 5840
5771 5777 5783 5791 5796 5801 5801 5801 5802 5805 5809 5812 5815 5817 5819 5821 5823 5825 5827 5829 5830 5831 5831 5833 5835 5836 5837 5837 5838 5838 5839 5839 5839 5839 5839 5839 5839 5839 5838 5838 5838 5837 5837 5837 5836 5836 5836 5835 5835
5764 5770 5779 5786 5790 5793 5794 5795 5798 5800 5804 5808 5811 5812 5814 5816 5818 5819 5821 5823 5825 5825 5826 5827 5829 5831 5832 5832 5833 5833 5834 5834 5835 5835 5835 5835 5835 5835 5834 5834 5834 5833 5833 5832 5832 5831 5831 5830 5830
5758 5765 5773 5778 5782 5785 5788 5790 5792 5795 5799 5803 5805 5806 5808 5810 5812 5815 5816 5818 5819 5820 5821 5822 5824 5825 5826 5827 5827 5828 5829 5829 5830 5830 5830 5830 5830 5830 5830 5830 5829 5829 5828 5828 5827 5827 5826 5825 5825
5752 5759 5765 5771 5773 5777 5782 5785 5787 5790 5794 5797 5799 5800 5801 5804 5806 5809 5811 5812 5814 5815 5816 5817 5818 5819 5820 5821 5821 5822 5823 5824 5824 5825 5825 5825 5825 5825 5825 5825 5824 5824 5823 5823 5822 5821 5821 5820 5819
5746 5752 5757 5762 5766 5770 5775 5780 5782 5784 5787 5790 5793 5794 5794 5797 5800 5802 5804 5805 5807 5809 5811 5812 5812 5813 5814 5815 5816 5816 5817 5817 5818 5819 5819 5820 5820 5819 5819 5819 5819 5818 5818 5817 5816 5815 5815 5814 5813
5739 5743 5749 5755 5760 5764 5769 5774 5777 5780 5780 5783 5786 5787 5788 5790 5793 5795 5797 5799 5800 5802 5804 5805 5806 5807 5808 5809 5809 5810 5810 5811 5812 5812 5813 5814 5814 5814 5814 5813 5813 5813 5812 5811 5810 5809 5808 5807 5806
5732 5737 5743 5748 5753 5757 5760 5766 5770 5773 5773 5774 5778 5781 5782 5784 5786 5789 5791 5793 5794 5795 5796 5798 5800 5801 5802 5803 5803 5804 5804 5805 5805 5806 5806 5807 5808 5808 5808 5808 5807 5807 5806 5805 5804 5803 5802 5801 5799
5725 5730 5735 5741 5745 5748 5753 5759 5763 5763 5765 5768 5771 5774 5776 5777 5779 5782 5784 5786 5787 5788 5789 5790 5792 5794 5796 5797 5797 5797 5798 5798 5799 5799 5799 5800 5801 5801 5801 5801 5801 5800 5800 5799 5798 5796 5795 5794 5792
5717 5723 5728 5733 5737 5740 5744 5750 5755 5755 5758 5761 5764 5766 5769 5770 5772 5774 5776 5778 5779 5780 5781 5782 5783 5786 5788 5789 5789 5790 5791 5792 5792 5792 5793 5793 5794 5794 5794 5794 5794 5794 5793 5792 5791 5790 5789 5787 5786
5711 5716 5721 5725 5729 5734 5738 5742 5748 5750 5752 5754 5757 5758 5760 5762 5764 5765 5767 5769 5770 5772 5773 5774 5775 5777 5779 5780 5781 5782 5783 5785 5785 5786 5786 5786 5787 5787 5787 5787 5787 5787 5786 5785 5784 5783 5782 5780 5778
5704 5709 5713 5718 5722 5726 5730 5734 5739 5742 5744 5746 5748 5750 5752 5754 5755 5756 5758 5760 5762 5763 5765 5766 5767 5769 5770 5772 5773 5774 5775 5776 5777 5778 5778 5779 5780 5780 5779 5779 5779 5779 5779 5778 5777 5776 5774 5773 5771
5697 5703 5707 5711 5715 5719 5723 5727 5731 5734 5736 5737 5739 5741 5743 5745 5746 5747 5749 5750 5752 5754 5756 5757 5758 5760 5761 5763 5764 5765 5765 5766 5768 5769 5771 5772 5772 5772 5771 5771 5771 5771 5771 5770 5769 5768 5767 5765 5763
5692 5697 5701 5705 5708 5712 5716 5722 5725 5726 5727 5729 5731 5732 5734 5736 5737 5738 5739 5741 5743 5745 5746 5747 5749 5750 5751 5753 5754 5755 5755 5757 5759 5762 5763 5764 5763 5763 5763 5763 5763 5763 5763 5762 5761 5760 5759 5757 5756
5687 5691 5695 5699 5702 5706 5710 5714 5719 5718 5719 5721 5723 5724 5725 5726 5727 5728 5729 5731 5732 5734 5735 5736 5738 5739 5740 5741 5743 5745 5746 5748 5751 5752 5753 5754 5754 5754 5754 5754 5754 5754 5754 5753 5752 5751 5750 5749 5747
5682 5686 5690 5693 5697 5701 5703 5705 5713 5712 5712 5713 5714 5715 5716 5716 5717 5718 5719 5720 5720 5721 5722 5724 5725 5726 5728 5729 5731 5733 5736 5738 5740 5741 5742 5743 5744 5745 5745 5745 5745 5745 5745 5745 5744 5743 5741 5740 5738
5679 5683 5686 5688 5691 5696 5698 5699 5703 5705 5705 5705 5706 5706 5706 5707 5707 5707 5707 5708 5708 5708 5708 5709 5710 5712 5713 5715 5717 5720 5723 5725 5727 5729 5730 5732 5733 5734 5735 5736 5736 5736 5736 5735 5735 5734 5732 5731 5729
5675 5679 5682 5685 5687 5691 5693 5694 5696 5695 5696 5697 5697 5697 5696 5696 5696 5695 5695 5694 5693 5692 5692 5692 5693 5695 5696 5698 5701 5705 5708 5711 5714 5717 5718 5720 5721 5723 5724 5725 5726 5726 5726 5725 5725 5724 5723 5722 5720
5671 5675 5679 5682 5684 5686 5687 5689 5690 5688 5687 5687 5687 5686 5685 5683 5682 5681 5679 5678 5676 5675 5674 5674 5675 5676 5678 5680 5684 5688 5692 5696 5700 5703 5705 5708 5710 5712 5713 5714 5715 5716 5716 5715 5715 5714 5713 5711 5710
5669 5672 5675 5677 5679 5681 5682 5683 5683 5680 5679 5677 5676 5674 5672 5670 5668 5665 5662 5659 5657 5655 5654 5654 5655 5656 5659 5661 5665 5670 5676 5681 5684 5688 5691 5695 5698 5700 5702 5704 5705 5705 5706 5705 5705 5704 5702 5701 5699
5666 5669 5672 5673 5674 5675 5677 5676 5675 5673 5671 5669 5666 5663 5660 5656 5652 5648 5644 5640 5637 5634 5633 5632 5633 5635 5638 5642 5647 5653 5659 5664 5669 5673 5678 5682 5685 5688 5691 5693 5694 5695 5695 5695 5695 5693 5692 5690 5688
5664 5667 5668 5669 5669 5669 5669 5672 5668 5665 5662 5660 5656 5652 5647 5642 5637 5631 5625 5620 5616 5613 5611 5611 5612 5615 5619 5624 5629 5635 5642 5648 5654 5659 5664 5669 5673 5677 5680 5682 5684 5685 5685 5685 5684 5683 5682 5679 5677
5661 5663 5664 5665 5665 5663 5662 5666 5660 5657 5654 5651 5647 5642 5636 5629 5621 5613 5606 5599 5595 5592 5591 5591 5593 5596 5601 5606 5612 5619 5626 5633 5639 5646 5652 5657 5662 5666 5670 5672 5674 5675 5675 5675 5674 5673 5671 5669 5666
Wind_Speed
33 32 31 31 30 28 25 26 28 28 26 23 22 23 24 24 22 19 17 19 19 18 18 19 20 19 20 20 20 20 20 21 21 22 22 22 22 21 21 20 19 19 18 18 18 18 19 19 19
35 34 34 33 32 29 27 30 32 32 28 25 24 25 26 25 22 18 18 20 19 18 18 19 20 20 21 22 22 22 22 22 23 23 23 24 24 23 23 22 22 21 20 19 19 19 20 20 20
37 37 36 36 33 28 28 34 35 34 30 28 28 29 30 28 23 20 20 20 19 19 19 19 20 21 22 23 23 23 24 24 24 25 25 25 25 25 25 24 24 23 22 22 21 21 21 21 21
39 38 38 36 31 27 31 36 36 35 32 30 30 32 33 30 25 24 23 22 21 21 20 20 21 22 22 23 23 24 24 24 25 25 26 26 26 26 27 26 25 25 24 23 22 22 22 22 21
42 41 39 35 28 27 31 35 35 33 31 28 30 33 34 32 28 27 26 25 25 24 23 23 22 22 23 23 23 23 24 24 25 25 25 26 26 27 27 27 27 26 26 25 24 23 22 21 21
44 42 39 33 27 28 30 33 34 32 29 27 28 32 34 32 29 28 28 28 28 27 26 25 24 24 24 23 23 23 23 24 24 24 24 24 25 25 26 26 26 26 26 25 24 23 22 22 21
44 42 38 32 30 30 29 33 34 32 29 27 28 31 30 29 28 28 28 29 29 29 27 27 26 26 25 25 24 23 23 23 23 22 22 23 23 23 24 24 24 24 24 24 24 23 23 22 21
44 43 39 34 31 29 29 33 33 32 29 28 29 29 28 27 26 26 27 28 29 30 29 29 28 27 27 27 26 25 25 24 24 23 22 22 22 22 22 23 23 23 23 23 24 24 24 24 24
44 43 39 33 31 29 31 34 35 34 32 30 28 28 27 27 26 25 25 26 28 29 30 30 29 29 29 29 28 28 27 26 26 25 24 23 22 22 22 22 22 22 22 23 24 25 25 26 26
45 44 37 33 32 31 34 36 36 36 33 30 28 28 28 28 27 25 25 25 26 28 30 31 30 30 30 30 30 30 29 28 28 27 26 24 24 23 22 22 22 23 23 23 24 25 26 28 29
46 43 37 34 34 35 36 37 37 37 34 30 28 29 30 29 27 25 24 25 26 28 29 30 30 30 30 31 31 31 31 30 30 29 28 27 25 24 23 22 22 23 23 24 24 25 26 28 29
46 44 40 37 38 38 37 37 37 36 33 29 29 30 31 29 27 25 24 24 25 27 27 28 29 29 30 31 32 32 32 32 32 31 29 28 27 26 25 23 23 24 24 25 25 26 27 28 29
48 45 43 41 41 39 37 36 36 35 34 31 30 32 33 31 28 27 26 26 26 26 27 27 28 29 30 31 32 32 33 33 32 32 31 29 28 28 27 26 26 25 26 26 27 27 28 28 28
50 48 46 44 42 40 38 36 36 36 36 35 33 33 34 33 30 29 28 28 29 29 29 29 29 29 30 31 31 32 32 32 32 32 31 30 29 28 28 28 27 27 27 28 28 28 29 29 29
51 50 47 45 43 42 41 39 37 37 39 39 36 34 34 33 31 29 29 30 31 32 32 31 30 30 31 31 32 32 32 32 31 31 31 30 30 29 29 29 28 28 29 29 28 29 29 30 30
51 50 48 46 45 44 44 40 38 40 41 41 38 35 34 34 32 31 30 31 33 34 34 32 32 31 31 31 32 33 33 32 30 30 30 30 30 30 30 29 28 28 29 29 29 29 29 30 31
51 50 48 46 46 46 45 42 40 41 41 41 39 37 35 34 34 32 31 32 34 35 35 34 33 33 32 33 34 34 34 32 31 30 30 29 30 30 30 30 29 29 29 29 29 29 30 31 32
48 48 48 46 46 45 44 42 40 40 41 41 40 39 37 36 35 36 35 35 35 36 37 36 35 34 33 35 36 35 35 33 32 32 31 31 30 31 31 31 30 30 30 30 30 30 30 31 32
47 47 46 45 45 44 44 43 40 40 42 42 41 40 39 38 38 38 38 37 37 37 38 38 37 36 35 35 36 36 36 36 36 35 35 34 32 32 32 32 32 32 32 31 32 32 32 32 33
42 43 42 43 43 43 43 42 40 40 41 42 42 41 41 40 40 41 41 41 41 40 40 40 40 39 38 37 38 39 40 40 39 38 36 35 34 34 35 35 34 34 34 34 34 34 34 34 34
36 37 38 39 40 41 41 40 38 38 39 40 41 41 41 42 42 42 43 44 44 44 43 43 43 43 43 42 42 43 43 42 40 38 37 37 37 37 37 37 36 35 35 35 35 36 35 35 35
31 32 32 33 35 36 38 38 32 34 35 36 38 39 41 42 43 44 45 46 47 47 47 47 47 48 47 47 47 46 45 44 43 42 42 42 42 41 41 40 39 38 37 37 37 37 37 37 37
27 26 27 28 30 32 32 36 30 29 30 33 35 38 40 42 44 46 47 49 50 51 51 51 52 52 52 52 52 51 50 49 48 47 46 46 45 45 44 44 42 41 40 39 39 39 38 38 38
24 23 24 24 26 27 26 31 30 26 29 32 35 38 41 43 46 48 50 52 54 55 56 57 57 57 57 57 57 56 55 54 52 50 50 49 49 48 48 47 45 44 43 42 41 40 40 40 40
22 21 21 22 22 23 23 25 27 28 30 33 36 40 43 46 49 51 54 56 58 59 60 61 62 61 61 61 60 60 59 58 56 54 53 52 52 50 49 49 48 46 46 45 43 42 42 41 41
20 20 20 20 20 20 21 23 25 29 32 35 37 40 44 47 50 52 55 56 58 59 61 62 63 63 64 64 63 62 61 59 58 57 56 55 53 52 51 50 49 48 47 46 44 44 43 43 43
18 18 17 18 18 19 21 22 25 29 33 35 38 40 43 46 48 51 53 55 57 58 59 61 62 63 63 64 64 63 62 60 59 58 57 56 55 53 52 50 49 48 47 47 45 45 45 44 45
16 15 15 16 18 20 21 21 24 27 30 33 36 39 41 45 48 51 54 56 58 59 60 60 60 60 61 61 62 63 62 61 59 58 57 56 54 53 52 50 49 47 47 46 45 45 45 45 45
14 14 15 17 19 21 21 19 22 25 28 31 33 37 40 43 47 50 52 55 56 56 56 56 56 57 57 57 58 59 59 60 59 57 56 54 53 51 50 49 48 47 46 45 45 45 46 46 46
13 14 15 17 18 19 19 17 20 23 26 29 31 34 38 42 45 48 50 51 51 49 48 48 49 50 52 53 53 54 55 56 56 55 53 52 51 49 48 47 46 45 45 45 45 45 46 46 47
Wind_Direction
226 228 228 229 229 227 225 227 229 228 226 226 228 232 234 237 243 250 254 257 259 259 260 262 265 267 269 270 270 271 270 268 266 264 263 265 267 270 272 272 271 268 267 267 268 268 269 270 270
228 230 231 232 231 229 228 231 232 232 230 228 230 233 236 237 240 245 249 254 260 262 261 262 265 266 268 269 270 272 272 271 269 267 265 264 266 267 268 269 268 266 264 263 263 264 265 266 266
232 232 234 233 232 231 231 235 236 236 234 232 233 236 240 241 242 245 248 254 258 261 261 262 264 265 267 269 272 274 275 274 272 270 268 266 266 267 268 268 267 265 263 261 261 262 263 264 266
234 234 235 234 232 229 231 236 238 238 236 236 237 240 244 245 244 245 248 252 255 258 260 262 263 265 267 269 272 274 275 275 275 274 272 270 269 269 269 269 269 268 266 264 263 263 264 265 267
234 234 235 233 228 225 229 236 238 239 238 236 238 241 245 245 244 246 248 251 255 257 259 261 263 266 269 271 273 275 276 276 277 278 277 276 274 273 272 272 271 271 270 268 267 267 267 267 269
234 234 234 230 222 221 225 234 237 237 235 234 236 240 243 246 246 247 248 250 253 256 259 262 265 267 270 273 276 277 277 278 279 280 281 280 278 276 274 273 272 273 273 271 270 269 267 267 267
231 233 231 225 217 217 220 231 237 237 234 232 234 239 243 246 248 248 249 250 253 256 258 260 263 266 269 272 276 278 278 279 280 282 283 282 281 278 275 273 272 272 272 271 269 267 265 264 263
228 229 227 221 216 214 220 231 238 241 240 237 237 240 244 247 249 247 247 248 251 254 256 258 260 264 267 270 273 275 277 278 280 282 283 284 283 281 278 276 274 273 273 271 268 265 262 261 260
226 228 226 220 217 214 222 230 237 241 242 242 244 246 246 247 248 248 247 246 247 250 254 256 258 260 263 266 269 272 274 276 279 281 282 283 283 283 282 280 278 277 276 274 272 267 263 261 260
224 227 224 220 219 217 224 230 236 241 245 247 250 252 251 250 248 248 248 246 246 248 251 254 256 258 261 264 266 269 271 274 276 278 280 281 282 282 282 281 280 279 279 278 276 273 269 265 263
224 227 224 223 224 223 225 232 237 242 246 248 250 252 253 253 252 252 251 250 248 249 252 256 257 258 260 262 265 267 270 272 273 275 278 280 280 280 281 281 279 279 280 280 279 277 275 271 269
225 227 227 227 229 229 228 232 238 243 249 251 253 254 254 254 255 254 252 251 251 251 253 255 258 259 260 261 264 266 268 270 271 273 275 277 278 278 278 278 278 279 280 281 281 281 280 278 275
226 228 229 230 232 234 233 234 239 244 248 250 249 252 255 254 252 251 249 249 250 251 252 253 256 258 260 262 264 266 268 269 271 272 273 273 275 276 277 277 277 278 279 280 281 282 282 282 281
227 229 231 232 235 238 239 238 238 241 247 248 247 249 253 255 253 249 248 249 251 252 252 252 253 255 258 261 264 266 268 269 270 271 271 271 273 275 277 278 278 279 279 280 281 283 284 284 283
229 232 234 235 237 240 241 238 237 239 244 246 247 248 252 254 253 250 247 247 250 253 254 253 253 253 255 258 262 264 266 268 270 271 271 271 271 273 275 276 277 278 280 281 283 284 285 285 284
230 233 235 236 238 239 240 237 238 239 241 245 248 248 250 253 254 251 247 246 247 250 252 253 252 251 252 254 257 260 262 265 267 270 271 271 270 270 271 274 276 278 279 281 282 284 285 286 286
230 232 235 236 238 239 240 239 237 241 242 245 248 249 250 251 253 252 248 244 244 247 249 251 250 249 249 251 253 255 258 260 264 267 269 269 269 269 270 271 274 275 277 278 281 283 286 288 288
231 234 236 238 239 240 241 242 240 243 245 247 248 250 250 249 250 250 247 244 242 243 246 248 249 248 248 249 252 254 256 258 260 262 264 265 266 267 268 270 272 273 275 277 279 282 286 288 290
232 234 236 238 240 241 241 242 243 243 245 247 248 249 249 249 249 249 248 247 246 245 246 247 249 249 249 250 252 254 256 256 256 258 260 263 265 267 268 269 270 271 274 276 279 282 285 288 290
233 235 238 240 241 242 242 243 244 245 246 247 249 249 249 249 249 250 249 248 248 247 247 248 249 250 250 250 251 252 253 254 255 257 260 263 266 267 267 268 269 270 273 276 278 280 283 286 288
233 235 237 240 243 244 244 243 246 247 248 249 250 251 251 251 250 250 251 251 250 249 249 249 249 250 251 251 251 251 253 255 258 260 261 261 262 263 265 268 270 271 273 275 277 279 282 284 287
231 234 237 240 242 245 246 245 243 249 250 251 252 253 254 254 254 253 253 253 253 253 252 252 251 251 252 252 253 253 254 256 257 258 258 258 260 262 264 267 270 271 272 274 276 278 281 284 286
230 233 236 239 242 245 248 250 244 247 251 253 254 255 256 256 257 257 256 257 257 257 256 256 255 254 254 254 254 254 254 255 256 257 258 259 260 261 263 266 268 270 271 273 275 277 280 283 285
226 230 234 237 240 244 245 252 253 253 252 254 255 257 258 259 259 260 260 260 260 260 260 259 258 257 256 255 254 254 254 254 255 255 257 259 259 260 262 264 266 268 270 272 275 277 279 281 283
219 223 228 233 237 242 244 251 260 263 261 260 261 262 263 263 263 263 263 263 263 262 261 260 259 257 256 255 254 253 253 253 253 254 254 256 257 259 260 262 264 266 269 272 274 277 278 280 282
210 216 224 232 236 241 248 254 265 270 271 271 271 271 270 270 270 269 268 267 265 264 262 260 258 256 255 253 252 252 251 251 252 252 252 253 255 257 258 260 262 264 267 271 273 275 277 279 281
205 214 225 239 245 251 257 265 272 276 278 278 278 278 278 277 276 275 273 271 269 266 264 261 258 256 253 251 250 249 249 249 249 250 250 251 253 254 256 258 260 263 266 269 272 274 276 278 281
209 221 236 251 261 266 269 278 284 282 282 281 282 282 283 283 282 280 278 275 272 270 267 263 259 255 252 249 247 247 246 246 246 247 248 249 250 252 254 256 259 261 265 268 270 272 275 279 281
221 235 250 261 270 278 282 288 287 284 284 286 288 290 290 291 290 288 284 280 277 272 268 264 259 253 249 246 244 243 242 242 243 244 245 246 248 250 252 255 257 260 264 267 269 272 274 278 282
235 249 260 269 276 281 288 293 290 290 292 295 297 298 299 298 297 294 290 285 279 274 268 262 257 251 246 243 241 239 238 238 238 240 241 243 245 247 250 253 256 260 263 266 269 271 275 279 283